Weather History for Ft. Stewart, GA

Change the Weather History Date:

Saturday, July 28, 2012

  Actual Average Record
Temperature  
Mean Temperature 84 °F -  
Max Temperature 94 °F 93 °F 99 °F (1968)
Min Temperature 74 °F 72 °F 66 °F (1988)
Cooling Degree Days 19    
Growing Degree Days 34 (Base 50)    
Moisture  
Dew Point 73 °F    
Average Humidity 76    
Maximum Humidity 94    
Minimum Humidity 50    
Precipitation  
Precipitation 0.00 in - - ()
Sea Level Pressure  
Sea Level Pressure 30.00 in    
Wind  
Wind Speed 6 mph (SSW)    
Max Wind Speed 12 mph    
Max Gust Speed -    
Visibility 10 miles    
Events Thunderstorm    
Averages and records for this station are not official NWS values.
T = Trace of Precipitation, MM = Missing Value Source: NWS Daily Summary

Daily Weather History Graph

Daily Weather History Graph

Search for Another Location

Airport:

Trip Planner

Search our weather history database for the weather conditions in past years. The results will help you decide how hot, cold, wet, or windy it might be!

Date:

Astronomy

Jul. 28, 2012 Rise Set
Actual Time 6:39 AM EDT 8:25 PM EDT
Civil Twilight 6:12 AM EDT 8:52 PM EDT
Nautical Twilight 5:40 AM EDT 9:24 PM EDT
Astronomical Twilight 5:06 AM EDT 9:58 PM EDT
Moon 4:25 PM EDT (7/28) 1:59 AM EDT (7/28)
Length of Visible Light 14h 39m
Length of Day
13h 46m
Waxing Gibbous, 75% of the Moon is Illuminated
Jul 28
Waxing Gibbous
Aug 1
Full
Aug 9
Last Quarter
Aug 17
New
Aug 24
First Quarter

Hourly Weather History & Observations

Time (EDT) Temp. Heat Index Dew Point Humidity Pressure Visibility Wind Dir Wind Speed Gust Speed Precip Events Conditions
12:55 AM 77.9 °F - 73.2 °F 85% 30.01 in 10.0 mi WSW 6.9 mph - N/A   Partly Cloudy
1:55 AM 76.8 °F - 72.9 °F 88% 30.00 in 10.0 mi WSW 5.8 mph - N/A   Clear
2:55 AM 76.1 °F - 72.1 °F 87% 29.99 in 10.0 mi SSW 3.5 mph - N/A   Clear
3:55 AM 75.6 °F - 72.1 °F 89% 29.99 in 9.0 mi SSW 3.5 mph - N/A   Partly Cloudy
4:55 AM 75.4 °F - 71.8 °F 89% 29.99 in 10.0 mi Calm Calm - N/A   Clear
5:55 AM 74.3 °F - 72.3 °F 94% 30.02 in 10.0 mi Calm Calm - N/A   Clear
6:55 AM 74.5 °F - 72.3 °F 93% 30.03 in 10.0 mi SW 4.6 mph - N/A   Clear
7:55 AM 76.1 °F - 73.0 °F 90% 30.04 in 10.0 mi SW 5.8 mph - N/A   Clear
8:28 AM 77.0 °F - 73.4 °F 89% 30.05 in 10.0 mi SSW 9.2 mph - N/A   Mostly Cloudy
8:44 AM 78.8 °F - 73.4 °F 83% 30.05 in 10.0 mi SW 8.1 mph - N/A   Scattered Clouds
8:55 AM 78.4 °F - 73.4 °F 84% 30.05 in 10.0 mi SW 6.9 mph - N/A   Scattered Clouds
9:55 AM 82.2 °F 88.0 °F 73.4 °F 75% 30.04 in 10.0 mi Variable 4.6 mph - N/A   Clear
10:55 AM 85.8 °F 93.4 °F 73.6 °F 67% 30.05 in 10.0 mi SW 4.6 mph - N/A   Clear
11:55 AM 88.7 °F 98.2 °F 74.7 °F 63% 30.04 in 10.0 mi SW 5.8 mph - N/A   Scattered Clouds
12:55 PM 90.5 °F 99.7 °F 74.1 °F 58% 30.03 in 10.0 mi Variable 4.6 mph - N/A   Scattered Clouds
1:55 PM 93.4 °F 102.8 °F 73.2 °F 52% 30.01 in 10.0 mi SW 8.1 mph - N/A   Scattered Clouds
2:55 PM 94.1 °F 103.1 °F 73.0 °F 50% 29.99 in 10.0 mi Variable 5.8 mph - N/A   Scattered Clouds
3:32 PM 93.2 °F 102.4 °F 73.4 °F 52% 29.97 in 10.0 mi SW 9.2 mph - N/A Thunderstorm Thunderstorm
3:55 PM 94.6 °F 104.4 °F 73.6 °F 50% 29.97 in 10.0 mi SSW 5.8 mph - N/A Thunderstorm Thunderstorm
4:41 PM 91.4 °F 102.5 °F 75.2 °F 59% 29.95 in 10.0 mi SSE 9.2 mph - N/A   Clear
4:55 PM 92.3 °F 100.9 °F 72.9 °F 53% 29.94 in 10.0 mi South 6.9 mph - N/A   Clear
5:55 PM 86.0 °F 93.4 °F 73.4 °F 66% 29.96 in 10.0 mi SE 6.9 mph - N/A   Scattered Clouds
6:19 PM 84.2 °F 90.9 °F 73.4 °F 70% 29.98 in 10.0 mi SE 10.4 mph - N/A Thunderstorm Thunderstorm
6:55 PM 79.5 °F - 71.4 °F 76% 29.97 in 10.0 mi SE 10.4 mph - N/A Thunderstorm Thunderstorm
7:26 PM 78.8 °F - 71.6 °F 78% 29.98 in 10.0 mi SSE 11.5 mph - N/A Thunderstorm Mostly Cloudy
7:37 PM 78.8 °F - 73.4 °F 83% 29.98 in 10.0 mi South 8.1 mph - N/A Thunderstorm Thunderstorm
7:52 PM 80.6 °F 84.6 °F 71.6 °F 74% 29.99 in 10.0 mi East 8.1 mph - N/A Thunderstorm Mostly Cloudy
7:55 PM 79.9 °F - 72.5 °F 78% 29.99 in 10.0 mi ESE 8.1 mph - N/A   Mostly Cloudy
8:55 PM 76.3 °F - 70.5 °F 82% 30.00 in 10.0 mi South 4.6 mph - N/A   Clear
9:55 PM 75.6 °F - 71.1 °F 86% 30.01 in 10.0 mi Variable 4.6 mph - N/A   Clear
10:55 PM 75.6 °F - 71.6 °F 87% 30.01 in 10.0 mi South 3.5 mph - N/A   Partly Cloudy
11:55 PM 75.9 °F - 72.5 °F 89% 30.00 in 10.0 mi SSE 3.5 mph - N/A   Clear